Home   Weather   Wake Island   Past weeks

Flag for US Minor Outlying Islands Past Weather in Wake Island, US Minor Outlying Islands — Yesterday and Last 2 Weeks

Now
77 °F

Partly cloudy.


Feels Like: 78 °F
Forecast: 75 / 79 °F
Wind: 18 mph from North

Location: Wake Island Airfld

Current Time: Jan 19, 2017 at 2:18:43 am

Latest Report: Jan 19, 2017 at 1:38 am


Visibility: N/A

Pressure: 29.96 "Hg

Humidity: 89%

Dew Point: 73 °F

Location of Wake IslandLocation

Past Weather in Wake Island — Graph

°F

Wake Island Temperature Yesterday

Maximum temperature yesterday: 83 °F (at 1:58 pm)
Minimum temperature yesterday: 75 °F (at 6:44 pm)
Average temperature yesterday: 78 °F

High & Low Weather Summary for the Past Weeks

 TemperatureHumidityPressure
High84 °F (Jan 5, 2:58 pm)100% (Jan 7, 10:09 am)30.03 "Hg (Jan 7, 10:09 am)
Low73 °F (Jan 9, 9:03 am)57% (Jan 13, 1:58 pm)29.69 "Hg (Jan 6, 2:58 pm)
Average78 °F82%29.86 "Hg
* Reported Jan 4 12:58 am — Jan 19 12:58 am, Wake Island, Weather by CustomWeather, © 2017

Note: Actual official high and low records may vary slightly from our data, if they occured in-between our weather recording intervals... More about our weather records

Advertising

Wake Island Weather History for the Previous 24 Hours

Scroll right to see more
 ConditionsComfort  
Time TempWeatherWind HumidityBarometerVisibility
12:58 am
Thu, Jan 19
77 °FMostly cloudy.16 mph86%29.99 "HgN/A
12:44 am77 °FMostly cloudy.16 mph89%29.97 "HgN/A
12:04 am75 °FFog.15 mph94%29.97 "Hg3 mi
11:41 pm
Wed, Jan 18
77 °FLight rain. Mostly cloudy.15 mph89%29.97 "HgN/A
10:58 pm77 °FOvercast.13 mph87%30.00 "HgN/A
9:58 pm76 °FMostly cloudy.18 mph89%30.00 "HgN/A
9:34 pm77 °FOvercast.17 mph89%29.98 "HgN/A
9:23 pm77 °FOvercast.16 mph89%29.98 "HgN/A
8:58 pm78 °FMostly cloudy.15 mph84%29.99 "HgN/A
7:08 pm77 °FMore clouds than sun.17 mph89%29.95 "HgN/A
6:44 pm75 °FLight rain. Fog.18 mph94%29.95 "Hg2 mi
6:34 pm77 °FLight rain. Fog.20 mph89%29.95 "Hg5 mi
6:16 pm77 °FLow clouds.20 mph89%29.94 "HgN/A
5:58 pm78 °FLight rain. Fog.16 mph88%29.96 "Hg5 mi
4:58 pm81 °FMore clouds than sun.7 mph78%29.95 "HgN/A
3:58 pm83 °FSunny.7 mph76%29.95 "HgN/A
2:58 pm82 °FSunny.7 mph79%29.95 "HgN/A
1:58 pm83 °FScattered clouds.8 mph78%29.96 "HgN/A
12:58 pm83 °FPassing clouds.9 mph81%29.99 "HgN/A
11:58 am82 °FScattered clouds.10 mph85%30.02 "HgN/A
10:58 am80 °FBroken clouds.10 mph88%30.03 "HgN/A
10:38 am81 °FMostly cloudy.12 mph89%30.01 "HgN/A
10:18 am79 °FPartly sunny.12 mph94%30.02 "HgN/A
9:58 am78 °FPartly sunny.10 mph92%30.03 "HgN/A
9:20 am77 °FMostly cloudy.7 mph94%30.01 "HgN/A
8:58 am76 °FLight rain. Fog.7 mph92%30.00 "Hg4 mi
8:31 am77 °FLight rain. Fog.7 mph89%29.99 "Hg5 mi
8:20 am77 °FLight rain. Fog.10 mph89%29.99 "Hg6 mi
7:58 am76 °FOvercast.13 mph92%30.00 "HgN/A
6:58 am78 °FMostly cloudy.13 mph90%29.98 "HgN/A
6:13 am77 °FPartly cloudy.13 mph94%29.95 "HgN/A
6:03 am77 °FOvercast.12 mph94%29.95 "HgN/A
4:58 am77 °FPassing clouds.10 mph90%29.95 "HgN/A
3:58 am78 °FPassing clouds.8 mph91%29.92 "HgN/A
2:58 am77 °FPassing clouds.8 mph90%29.93 "HgN/A
Weather by CustomWeather, © 2017

See weather overviewHow to use our weather pages